• In Uzbekistan
  • List of Countries
  • For 7 days
  • Water Temperature
  • Satellite Maps
  • Weather Map
  • Weather Widgets
  • user-avatar
    Login

    Hourly Weather Klagenfurt

    Today, 23 July, Tuesday

    Time Temperature Precipitation Wind Pressure Humidity
    00:00 +18°C° 0 mm 1 mps 696 mmHg 89%
    01:00 +18°C° 0 mm 1 mps 695 mmHg 90%
    02:00 +18°C° 0 mm 1 mps 695 mmHg 91%
    03:00 +16°C° 0 mm 1 mps 695 mmHg 92%
    04:00 +16°C° 0 mm 1 mps 695 mmHg 93%
    05:00 +18°C° 0 mm 1 mps 695 mmHg 90%
    06:00 +20°C° 0 mm 1 mps 695 mmHg 87%
    07:00 +19°C° 0 mm 0 mps 695 mmHg 84%
    08:00 +23°C° 0 mm 1 mps 696 mmHg 74%
    09:00 +25°C° 0 mm 1 mps 696 mmHg 64%
    10:00 +28°C° 0 mm 1 mps 696 mmHg 55%
    11:00 +29°C° 0 mm 1 mps 696 mmHg 50%
    12:00 +30°C° 0 mm 1 mps 696 mmHg 46%
    13:00 +31°C° 0 mm 1 mps 696 mmHg 42%
    14:00 +30°C° 0.1 mm 1 mps 696 mmHg 44%
    15:00 +30°C° 0.1 mm 1 mps 695 mmHg 46%
    16:00 +30°C° 0.1 mm 1 mps 695 mmHg 47%
    17:00 +28°C° 0.1 mm 1 mps 695 mmHg 58%
    18:00 +26°C° 0.1 mm 1 mps 694 mmHg 68%
    19:00 +24°C° 0.1 mm 1 mps 694 mmHg 79%
    20:00 +23°C° 0 mm 1 mps 694 mmHg 81%
    21:00 +22°C° 0 mm 1 mps 694 mmHg 82%
    22:00 +21°C° 0 mm 1 mps 694 mmHg 84%
    23:00 +20°C° 0 mm 1 mps 694 mmHg 86%

    Tomorrow, 24 July, Wednesday

    Time Temperature Precipitation Wind Pressure Humidity
    00:00 +20°C° 0 mm 1 mps 694 mmHg 87%
    01:00 +17°C° 0 mm 0 mps 693 mmHg 89%
    02:00 +17°C° 0 mm 0 mps 693 mmHg 90%
    03:00 +16°C° 0 mm 0 mps 693 mmHg 91%
    04:00 +16°C° 0 mm 0 mps 692 mmHg 92%
    05:00 +17°C° 0 mm 0 mps 693 mmHg 89%
    06:00 +19°C° 0 mm 0 mps 693 mmHg 85%
    07:00 +20°C° 0 mm 0 mps 693 mmHg 81%
    08:00 +22°C° 0 mm 0 mps 694 mmHg 73%
    09:00 +26°C° 0 mm 1 mps 694 mmHg 65%
    10:00 +28°C° 0 mm 1 mps 694 mmHg 57%
    11:00 +29°C° 0 mm 1 mps 694 mmHg 55%
    12:00 +30°C° 0 mm 1 mps 694 mmHg 52%
    13:00 +31°C° 0 mm 1 mps 694 mmHg 49%
    14:00 +30°C° 0.3 mm 1 mps 694 mmHg 52%
    15:00 +30°C° 0.3 mm 1 mps 693 mmHg 56%
    16:00 +29°C° 0.3 mm 1 mps 693 mmHg 59%
    17:00 +27°C° 0.4 mm 1 mps 693 mmHg 68%
    18:00 +26°C° 0.4 mm 1 mps 693 mmHg 76%
    19:00 +24°C° 0.4 mm 1 mps 692 mmHg 84%
    20:00 +23°C° 0.3 mm 1 mps 692 mmHg 85%
    21:00 +22°C° 0.3 mm 1 mps 693 mmHg 86%
    22:00 +21°C° 0.3 mm 1 mps 693 mmHg 87%
    23:00 +21°C° 0 mm 1 mps 693 mmHg 88%

    Day after tomorrow, 25 July, Thursday

    Time Temperature Precipitation Wind Pressure Humidity
    00:00 +18°C° 0 mm 0 mps 693 mmHg 89%
    01:00 +18°C° 0 mm 0 mps 692 mmHg 90%
    02:00 +18°C° 0 mm 0 mps 692 mmHg 91%
    03:00 +17°C° 0 mm 0 mps 692 mmHg 92%
    04:00 +17°C° 0 mm 0 mps 692 mmHg 92%
    05:00 +18°C° 0 mm 0 mps 693 mmHg 90%
    06:00 +20°C° 0 mm 0 mps 693 mmHg 87%
    07:00 +21°C° 0 mm 0 mps 693 mmHg 85%
    08:00 +23°C° 0 mm 0 mps 693 mmHg 76%
    09:00 +27°C° 0 mm 1 mps 694 mmHg 68%
    10:00 +28°C° 0 mm 1 mps 694 mmHg 59%
    11:00 +29°C° 0.1 mm 1 mps 694 mmHg 58%
    12:00 +29°C° 0.1 mm 1 mps 694 mmHg 57%
    13:00 +30°C° 0.1 mm 1 mps 694 mmHg 56%
    14:00 +30°C° 0.1 mm 1 mps 693 mmHg 57%
    15:00 +29°C° 0.1 mm 1 mps 693 mmHg 57%
    16:00 +29°C° 0.1 mm 1 mps 693 mmHg 57%
    17:00 +27°C° 0.6 mm 1 mps 692 mmHg 67%
    18:00 +26°C° 0.6 mm 1 mps 692 mmHg 76%
    19:00 +24°C° 0.6 mm 1 mps 692 mmHg 86%
    20:00 +23°C° 0.3 mm 1 mps 692 mmHg 87%
    21:00 +22°C° 0.3 mm 1 mps 692 mmHg 88%
    22:00 +21°C° 0.3 mm 1 mps 692 mmHg 90%
    23:00 +19°C° 0.2 mm 0 mps 691 mmHg 91%

    26 July, Friday

    Time Temperature Precipitation Wind Pressure Humidity
    00:00 +18°C° 0.2 mm 0 mps 691 mmHg 92%
    01:00 +18°C° 0.2 mm 0 mps 691 mmHg 93%
    02:00 +18°C° 0.4 mm 0 mps 691 mmHg 93%
    03:00 +17°C° 0.4 mm 0 mps 690 mmHg 94%
    04:00 +17°C° 0.4 mm 0 mps 690 mmHg 94%
    05:00 +18°C° 0.2 mm 0 mps 690 mmHg 93%
    06:00 +19°C° 0.2 mm 0 mps 690 mmHg 92%
    07:00 +20°C° 0.2 mm 0 mps 690 mmHg 91%
    08:00 +22°C° 0.7 mm 0 mps 691 mmHg 85%
    09:00 +24°C° 0.7 mm 0 mps 691 mmHg 79%
    10:00 +27°C° 0.7 mm 1 mps 691 mmHg 72%
    11:00 +27°C° 1.5 mm 1 mps 691 mmHg 71%
    12:00 +28°C° 1.5 mm 1 mps 690 mmHg 70%
    13:00 +28°C° 1.5 mm 1 mps 690 mmHg 69%
    14:00 +28°C° 1 mm 1 mps 690 mmHg 67%
    15:00 +28°C° 1 mm 1 mps 690 mmHg 65%
    16:00 +28°C° 1 mm 1 mps 689 mmHg 63%
    17:00 +26°C° 1.1 mm 1 mps 689 mmHg 71%
    18:00 +24°C° 1.1 mm 1 mps 689 mmHg 79%
    19:00 +21°C° 1.1 mm 0 mps 688 mmHg 88%
    20:00 +20°C° 0.5 mm 0 mps 688 mmHg 89%
    21:00 +18°C° 0.5 mm 0 mps 689 mmHg 90%
    22:00 +19°C° 0.5 mm 1 mps 689 mmHg 91%
    23:00 +17°C° 0.2 mm 0 mps 688 mmHg 91%

    27 July, Saturday

    Time Temperature Precipitation Wind Pressure Humidity
    00:00 +16°C° 0.2 mm 0 mps 688 mmHg 92%
    01:00 +16°C° 0.2 mm 0 mps 688 mmHg 93%
    02:00 +16°C° 0 mm 0 mps 688 mmHg 94%
    03:00 +16°C° 0 mm 0 mps 688 mmHg 94%
    04:00 +15°C° 0 mm 0 mps 688 mmHg 94%
    05:00 +16°C° 0 mm 0 mps 688 mmHg 93%
    06:00 +17°C° 0 mm 0 mps 688 mmHg 92%
    07:00 +18°C° 0 mm 0 mps 688 mmHg 91%
    08:00 +20°C° 0 mm 0 mps 689 mmHg 82%
    09:00 +23°C° 0 mm 1 mps 689 mmHg 73%
    10:00 +25°C° 0 mm 1 mps 690 mmHg 63%
    11:00 +26°C° 0.2 mm 1 mps 689 mmHg 62%
    12:00 +26°C° 0.2 mm 1 mps 689 mmHg 61%
    13:00 +27°C° 0.2 mm 1 mps 689 mmHg 60%
    14:00 +26°C° 0.3 mm 1 mps 689 mmHg 63%
    15:00 +26°C° 0.3 mm 1 mps 689 mmHg 67%
    16:00 +25°C° 0.3 mm 1 mps 688 mmHg 71%
    17:00 +24°C° 0.4 mm 1 mps 688 mmHg 77%
    18:00 +23°C° 0.4 mm 1 mps 688 mmHg 83%
    19:00 +21°C° 0.4 mm 1 mps 688 mmHg 89%
    20:00 +20°C° 0.1 mm 1 mps 688 mmHg 90%
    21:00 +19°C° 0.1 mm 1 mps 688 mmHg 91%
    22:00 +16°C° 0.1 mm 0 mps 689 mmHg 93%
    23:00 +16°C° 0 mm 0 mps 689 mmHg 92%

    28 July, Sunday

    Time Temperature Precipitation Wind Pressure Humidity
    00:00 +16°C° 0 mm 0 mps 689 mmHg 92%
    01:00 +16°C° 0 mm 0 mps 689 mmHg 91%
    02:00 +16°C° 0 mm 0 mps 689 mmHg 91%
    03:00 +15°C° 0 mm 0 mps 688 mmHg 92%
    04:00 +15°C° 0 mm 0 mps 688 mmHg 92%
    05:00 +16°C° 0 mm 0 mps 689 mmHg 90%
    06:00 +17°C° 0 mm 0 mps 689 mmHg 88%
    07:00 +18°C° 0 mm 0 mps 689 mmHg 86%
    08:00 +22°C° 0 mm 1 mps 690 mmHg 77%
    09:00 +23°C° 0 mm 1 mps 690 mmHg 68%
    10:00 +25°C° 0 mm 1 mps 690 mmHg 60%
    11:00 +26°C° 0 mm 1 mps 690 mmHg 56%
    12:00 +27°C° 0 mm 1 mps 691 mmHg 53%
    13:00 +28°C° 0 mm 1 mps 691 mmHg 50%
    14:00 +28°C° 0 mm 1 mps 691 mmHg 49%
    15:00 +28°C° 0 mm 1 mps 690 mmHg 49%
    16:00 +28°C° 0 mm 1 mps 690 mmHg 48%
    17:00 +26°C° 0 mm 1 mps 690 mmHg 58%
    18:00 +24°C° 0 mm 1 mps 690 mmHg 68%
    19:00 +22°C° 0 mm 1 mps 690 mmHg 78%
    20:00 +21°C° 0 mm 1 mps 690 mmHg 79%
    21:00 +20°C° 0 mm 1 mps 690 mmHg 81%
    22:00 +19°C° 0 mm 1 mps 691 mmHg 82%
    23:00 +18°C° 0 mm 1 mps 691 mmHg 83%
    Show more